Regional Weather Roundup
Issued by NWS Cleveland, OH

Home | Current Version | Previous Version | Graphics & Text | Print | Product List | Glossary On
Versions: 1 2 3 4 5 6 7 8 9 10 11 12 13 14 15 16 17 18 19 20 21 22 23 24 25 26 27 28 29 30 31 32 33 34 35 36 37 38 39 40 41 42 43 44 45 46 47 48 49 50
000
ASUS41 KCLE 291310
RWRCLE
OHIO REGIONAL WEATHER ROUNDUP
NATIONAL WEATHER SERVICE WILMINGTON, OH
800 AM EST THU JAN 29 2015

NOTE: "FAIR" INDICATES FEW OR NO CLOUDS BELOW 12,000 FEET WITH NO
SIGNIFICANT WEATHER AND/OR OBSTRUCTIONS TO VISIBILITY.

OHZ001>008-015>018-024>027-034-035-043-044-291400-
   NORTHWEST OHIO

CITY           SKY/WX    TMP DP  RH WIND       PRES   REMARKS
DEFIANCE       CLOUDY    36  26  67 S12G23    29.77F
FINDLAY        CLOUDY    33  25  72 S16       29.79F WCI  23
TOLEDO EXPRESS CLOUDY    31  23  72 S7        29.78F WCI  24
TOLEDO EXEC    CLOUDY    33  23  66 S13       29.81F WCI  24
LIMA           CLOUDY    37  28  70 S17       29.79F
$$

OHZ009>014-019>023-028>033-038-089-291400-
   NORTHEAST OHIO

CITY           SKY/WX    TMP DP  RH WIND       PRES   REMARKS
CLE-HOPKINS    CLOUDY    34  16  47 S20       29.88F WCI  23
CLE-LAKEFRONT  CLOUDY    33  15  47 SE26G35   29.85F WCI  20
CUY CO. ARPT   CLOUDY    32  16  51 S17G29    29.87F WCI  21
LORAIN-ELYRIA  FLURRIES  32  19  58 S26G32    29.86F WCI  18
ASHTABULA      CLOUDY    27   7  42 SE14G21   29.95F WCI  16
AKRON-CANTON   CLOUDY    29  14  53 S21       29.92F WCI  16
WOOSTER        CLOUDY    29  16  58 S15       29.92F WCI  18
MANSFIELD      FRZ RAIN  31  21  66 SE21G32   29.85F WCI  18
YOUNGSTOWN     CLOUDY    26   7  44 SE15      29.96F WCI  14
$$

OHZ042-051>053-060>062-070>072-077>081-291400-
  SOUTHWEST OHIO

CITY           SKY/WX    TMP DP  RH WIND       PRES   REMARKS
CINC-COVINGTON CLOUDY    39  30  70 S16G23    29.87F
CINC-LUNKEN    LGT RAIN  35  30  82 S10       29.91F WCI  27
HAMILTON       CLOUDY    36  30  79 SE3       29.89F
DAYTON         CLOUDY    36  29  75 S18       29.83F
WRIGHT-PAT AFB CLOUDY    35  30  81 S13       29.85F WCI  26
DAYTON GENERAL CLOUDY    36  29  75 S20       29.85F
WILMINGTON     CLOUDY    35  27  72 S18G28    29.87F WCI  24
$$

OHZ036-037-039>041-045>050-054>059-063>069-073>076-082>088-291400-
  CENTRAL AND SOUTHEAST OHIO

CITY           SKY/WX    TMP DP  RH WIND       PRES   REMARKS
COLUMBUS       FRZ RAIN  32  24  72 SE10      29.91F WCI  24
OSU AIRPORT    FRZ RAIN  32  24  72 S13G25    29.90F WCI  22
BOLTON FIELD   LGT RAIN  30  27  86 SE16      29.90F WCI  19
RICKENBACK AFB MIX PCPN  33  24  71 S16       29.91F WCI  22
NEWARK         MIX PCPN  32  21  64 S8        29.94F WCI  25
MARION         LGT RAIN  33  25  72 S21G31    29.86F WCI  21
LANCASTER      LGT RAIN  33  21  61 SE13      29.94F WCI  24
ZANESVILLE     CLOUDY    29  15  56 S9        29.98F WCI  20
NEW PHILLY     CLOUDY    29  15  56 SE7       29.98F WCI  22
$$


USA.gov is the U.S. government's official web portal to all federal, state and local government web resources and services.